#timestamp,LO_Frequency,Hit,StdDev 
1697655615.4,286047005.8,N
1697655635.3,286047005.2,N
1697655655.1,286047005.5,N
1697655675.9,286047005.1,N
1697655695.7,286047007.2,N
1697655715.5,286047004.8,N
1697655735.4,286047004.9,N
1697655755.2,286047007.6,N
1697655775.0,286047009.2,N
1697655775.9,286047009.2,N
1697655795.8,286047008.8,N
1697655815.6,286047006.7,N
1697655835.5,286047006.5,N
1697655855.3,286047008.5,N
1697655875.1,286047009.2,N
1697655895.9,286047009.2,N
1697655915.7,286047009.2,Y
1697655935.6,286047004.1,P
1697655955.4,286047003.6,P
1697655975.2,286047003.0,P
1697655995.1,286047003.1,Y
1697655996.0,286047003.1,P
1697656015.8,286047000.0,N
1697656035.6,286046999.7,N
1697656055.5,286046999.9,N
1697656075.3,286047001.6,N
1697656095.2,286047001.5,N
1697656115.9,286047003.7,N
1697656135.7,286047005.6,Y
1697656155.6,286047004.3,P
1697656175.4,286047004.3,P
1697656195.2,286047001.3,N
1697656215.1,286047001.5,N
1697656216.0,286047001.5,N
1697656235.8,286047004.4,Y
1697656255.7,286047002.7,P
1697656275.5,286047002.8,P
1697656295.3,286047000.1,N
1697656315.2,286047000.4,N
1697656335.0,286047000.4,N
1697656335.9,286047000.4,N
1697656355.8,286047002.6,N
1697656375.6,286047002.6,N
1697656395.4,286047002.0,N
1697656415.3,286047002.2,N
1697656435.1,286047001.7,N
1697656455.8,286047002.0,N
1697656475.7,286047001.6,N
1697656495.5,286047004.3,Y
1697656515.4,286047002.1,P
1697656535.2,286047003.9,P
1697656555.0,286047004.0,P
1697656555.9,286047004.0,Y
1697656575.8,286047000.4,P
1697656595.6,286047000.3,N
1697656615.5,286047000.4,N
1697656635.3,286046999.9,N
1697656655.1,286046999.9,N
1697656675.9,286047002.3,N
1697656695.7,286047001.3,N
1697656715.5,286047003.4,Y
1697656735.4,286047003.6,P
1697656755.2,286047003.2,N
1697656775.1,286047003.4,N
1697656776.0,286047003.4,Y
1697656795.8,286047000.0,P
1697656815.6,286047002.5,N
1697656835.5,286047001.3,N
1697656855.3,286047004.8,Y
1697656875.2,286047006.0,P
1697656895.9,286047004.7,N
1697656915.7,286047004.7,N
1697656935.6,286047005.8,Y
1697656955.4,286046999.8,P
1697656975.2,286046998.1,N
1697656995.1,286046999.9,N
1697656996.0,286046999.9,N
1697657015.8,286047002.1,N
1697657035.7,286047001.9,N
1697657055.5,286047003.6,N
1697657075.3,286047004.3,N
1697657095.2,286047003.8,N
1697657115.0,286047003.7,N
1697657115.9,286047003.7,N
1697657135.8,286047004.3,N
1697657155.6,286047003.8,N
1697657175.4,286047001.5,N
1697657195.3,286047002.5,N
1697657215.1,286047002.2,N
1697657235.8,286047002.6,N
1697657255.7,286047000.4,N
1697657275.5,286047000.1,N
1697657295.4,286047002.3,N
1697657315.2,286047001.4,N
1697657335.0,286047001.7,N
1697657335.9,286047001.7,N
1697657355.8,286047002.0,N
1697657375.6,286047002.0,N
1697657395.4,286047004.2,N
1697657415.3,286047004.2,N
1697657435.1,286047003.2,N
1697657455.9,286047005.8,Y
1697657475.7,286047001.9,P
1697657495.5,286047002.6,P
1697657515.4,286047001.3,P
1697657535.2,286047002.9,Y
1697657555.0,286047001.6,P
1697657555.9,286047001.6,P
1697657575.8,286047002.0,P
1697657595.6,286047001.7,Y
1697657615.5,286047000.3,P
1697657635.3,286047000.1,N
1697657655.1,286047002.1,N
1697657675.9,286047001.4,N
1697657695.7,286047003.7,Y
1697657715.6,286047001.3,P
1697657735.4,286047001.9,P
1697657755.2,286047002.2,P
1697657775.1,286047001.4,Y
1697657776.0,286047001.4,P
1697657795.8,286046999.9,N
1697657815.6,286047004.0,P
1697657835.5,286047003.3,N
1697657855.3,286047003.8,N
1697657875.2,286047003.0,N
1697657895.9,286047004.1,N
1697657915.7,286047001.4,N
1697657935.6,286047004.1,N
1697657955.4,286047003.0,N
1697657975.2,286047003.9,N
1697657995.1,286047001.7,N
1697657996.0,286047001.7,N
1697658015.8,286047004.4,Y
1697658035.7,286047001.2,P
1697658055.5,286047000.7,N
1697658075.3,286046998.5,N
1697658095.2,286046998.1,N
1697658115.0,286046998.2,N
1697658115.9,286046998.2,N
1697658135.8,286046998.3,N
1697658155.6,286047000.7,N
1697658175.4,286047000.8,N
1697658195.3,286047000.8,N
1697658215.1,286047001.1,N
1697658216.0,286047001.1,N
1697658235.8,286047000.8,N
1697658255.7,286047000.7,N
1697658275.5,286047000.2,N
1697658295.3,286047000.8,N
1697658315.2,286046999.9,N
1697658335.0,286046999.7,N
1697658335.9,286046999.7,N
1697658355.8,286047002.3,N
1697658375.6,286047002.3,N
1697658395.4,286047002.5,N
1697658415.3,286047003.7,N
1697658435.1,286047003.4,N
1697658455.8,286047002.9,N
1697658475.7,286047003.5,N
1697658495.5,286047003.0,N
1697658515.4,286047005.8,Y
1697658535.2,286047003.5,P
1697658555.0,286047004.1,P
1697658555.9,286047004.1,N
1697658575.8,286047004.3,Y
1697658595.6,286047000.7,P
1697658615.5,286046999.7,N
1697658635.3,286047000.1,N
1697658655.1,286047000.4,N
1697658675.9,286047000.6,N
1697658695.7,286047000.5,N
1697658715.5,286047002.3,N
1697658735.4,286047001.8,N
1697658755.2,286047004.4,Y
1697658775.1,286047002.1,P
1697658776.0,286047002.1,P
1697658795.8,286047002.1,P
1697658815.6,286047002.0,Y
1697658835.5,286047000.1,P
1697658855.3,286047000.4,N
1697658875.1,286047000.0,N
1697658895.9,286047000.1,N
1697658915.7,286047002.0,N
1697658935.6,286047003.6,Y
1697658955.4,286047002.6,P
1697658975.2,286047004.4,P
1697658995.1,286047004.1,N
1697658996.0,286047004.1,N
1697659015.8,286047004.8,Y
1697659035.7,286047003.7,P
1697659055.5,286047005.7,P
1697659075.3,286047003.5,P
1697659095.2,286047003.7,Y
1697659115.0,286047002.0,P
1697659115.9,286047002.0,N
1697659135.8,286047002.4,N
1697659155.6,286047000.7,N
1697659175.4,286046998.1,N
1697659195.3,286047001.1,N
